Terminal Aerodrome Forecast
Issued by NWS Denver/Boulder, CO

Home | Current Version | Previous Version | Text Only | Print | Product List | Glossary On
Versions: 1 2 3 4 5 6 7 8 9 10 11 12 13 14 15 16 17 18 19 20 21 22 23 24 25 26 27 28 29 30 31 32 33 34 35 36 37 38 39 40 41 42 43 44 45 46 47 48 49 50
346
FTUS45 KBOU 211043 AAF
TAFDEN
TAF AMD
KDEN 211043Z 2111/2212 30016G22KT P6SM VCSH SCT080 BKN100
     FM211105 04010KT P6SM SCT100 BKN200
     FM211600 31015G25KT P6SM FEW100
     FM220000 29011KT P6SM FEW100
     FM220400 21011KT P6SM FEW220=

USA.gov is the U.S. government's official web portal to all federal, state and local government web resources and services.